Pagrindinis puslapis
METAR-TAF:

METAR-TAF

Oro uostai :

Gaines County Airport

Seminole, Teksasas, Jungtinės Amerikos Valstijos

platuma: 32-40-31N, ilguma: 102-39-09W, Aukštis: 1010 m

Dabartinis oras

Ataskaita buvo paskelbta 19 minutes, ne 11:35 UTC
Vėjas 6 kt iš Vakarų/Pietvakarių
Temperatūra 5°C
Drėgmė 70%
Slėgis 1019 hPa
Matomumas: 16.1 km
Giedras dangus

METAR: KGNC 301135Z AUTO 25006KT 10SM CLR 05/00 A3010 RMK AO2 T00530000

Laikas: 05:54 (11:54 UTC)


TAF: trūkstamas

Orai ataskaitas ir orų prognozės (METAR, TAF).

turimą stotys yra geltonos ir raudonos taškus žemėlapyje.

Perkelti pele per norėdami pamatyti stoties vardą.

Tada spustelėkite, norėdami matyti oro stebėjimo ir prognozės.

Norėdami pakeisti žemėlapį: spustelėkite ant žalios mygtukų su juodo kryžiaus žemyn,; žalią mygtuką su brūkšneliu, jei norite nutolinti; arba žalių rodyklių gretimoms žemėlapius.


METAR-TAF: